カタログに戻る

SOLRAD 11A/B PKM

運用中HEO
NORAD 8752·ROCKET BODY·🇺🇸 United States

打ち上げ Mar 15, 1976 から Cape Canaveral Space Force Station

Loading…

次のパス (今後24時間)

TLE

最新Source: Space-Track

元期: Sep 7, 2026, 08:06 UTC

1 08752U 76023G   26250.33778644 -.00000435  00000-0  00000-0 0  9990
2 08752  21.6577 356.7515 4383172  58.5139 359.6083  0.41540803 81821

AllMySatでSOLRAD 11A/B PKMをリアルタイム追跡

Download on the App Store